Location: Unspecified
(48.2082°N, 0.0000°E)
Time: 11:47:11
(UTC+00:00)

S-56A Canister/Altair - Pass Details

Date: 25 June 2019
Orbit: 632 x 2500 km, 38.9° (Epoch: 19 July)

Event Time Altitude Azimuth Distance (km) Brightness Sun altitude
Rises 18:04:16 0° 264° (W) 4,673 12.8 17.0°
Reaches altitude 10° 18:08:07 10° 257° (WSW) 3,365 12.0 16.3°
Maximum altitude 18:15:07 35° 196° (SSW) 1,564 9.3 15.2°
Drops below altitude 10° 18:20:09 10° 131° (SE) 2,388 9.6 14.4°
Sets 18:22:26 0° 121° (ESE) 3,169 10.1 14.1°
